Regional Weather Roundup
Issued by NWS

Home | Current Version | Previous Version | Text Only | Print | Product List | Glossary On
Versions: 1 2 3 4 5 6 7 8 9 10 11 12 13 14 15 16 17 18 19 20 21 22 23 24 25 26 27 28 29 30 31 32 33 34 35 36 37 38 39 40 41 42 43 44 45 46 47 48 49 50
000
ASUS44 KJAN 251510
RWRMS

MISSISSIPPI HOURLY WEATHER ROUNDUP
NATIONAL WEATHER SERVICE JACKSON MS
1000 AM CDT SAT OCT 25 2014

NOTE: "FAIR: INDICATES FEW OR NO CLOUDS BELOW 12,000 FEET WITH NO
SIGNIFICANT WEATHER AND/OR OBSTRUCTIONS TO VISIBILITY.

MSZ001>002-007>008-010>013-018>021-025>028-034>036-251600-
NORTHWEST MISSISSIPPI

CITY           SKY/WX    TMP DP  RH WIND       PRES   REMARKS
CLARKSDALE     FAIR      68  59  73 W8        30.14S
CLEVELAND      FAIR      67  59  75 W7        30.15F
GREENWOOD      SUNNY     64  56  75 VRB3      30.17R
GREENVILLE     SUNNY     68  56  65 W8        30.16R
GRENADA          N/A    N/A N/A N/A MISG        N/A
OLIVE BRANCH   SUNNY     64  63  94 SW7       30.11S
OXFORD         FAIR      64  55  72 W6        30.15F
TUNICA         SUNNY     68  59  73 SW6       30.12F
$$

MSZ003>006-009-014>017-022>024-029>033-037>039-251600-
NORTHEAST MISSISSIPPI

CITY           SKY/WX    TMP DP  RH WIND       PRES   REMARKS
COLUMBUS AFB   SUNNY     61  53  76 CALM      30.15R
CORINTH        FAIR      64  57  77 CALM      30.11F
GOLDN TRIANGLE SUNNY     66  54  63 NW5       30.14S
STARKVILLE     FAIR      64  55  72 CALM      30.14S
TUPELO         SUNNY     66  57  72 W5        30.14R
$$

MSZ040-058-251600-
CENTRAL MISSISSIPPI

CITY           SKY/WX    TMP DP  RH WIND       PRES   REMARKS
JACKSON INTL   SUNNY     67  53  61 CALM      30.17S
JACKSON HAWKNS SUNNY     66  55  67 NW7       30.18R
MERIDIAN KEY   SUNNY     63  52  67 CALM      30.16S
MERIDIAN NAS   SUNNY     65  54  67 W3        30.16S
RAYMOND        FAIR      64  59  82 MISG      30.18R HAZE
VICKSBURG      SUNNY     65  55  70 CALM      30.18R
$$

MSZ059>079-251600-
SOUTH MISSISSIPPI

CITY           SKY/WX    TMP DP  RH WIND       PRES   REMARKS
BROOKHAVEN     FAIR      66  54  63 N3        30.19S
COLUMBIA         N/A    N/A N/A N/A MISG        N/A
HATTIESBURG    SUNNY     64  53  67 N3        30.18R
MCCOMB         SUNNY     68  49  50 N6        30.18R
NATCHEZ        SUNNY     63  54  72 CALM      30.19S
PINE BELT      SUNNY     68  54  60 NE6       30.18R
$$

MSZ080>082-251600-
COASTAL MISSISSIPPI

CITY           SKY/WX    TMP DP  RH WIND       PRES   REMARKS
BAY ST LOUIS   SUNNY     64  52  63 CALM      30.16S
BILOXI         SUNNY     67  50  55 NE7       30.15R
PASCAGOULA     SUNNY     66  51  58 N7        30.15R
GULFPORT       SUNNY     67  51  56 N8        30.15S
$$



USA.gov is the U.S. government's official web portal to all federal, state and local government web resources and services.